Regional Weather Roundup
Issued by NWS Cleveland, OH

Home | Current Version | Previous Version | Graphics & Text | Print | Product List | Glossary On
Versions: 1 2 3 4 5 6 7 8 9 10 11 12 13 14 15 16 17 18 19 20 21 22 23 24 25 26 27 28 29 30 31 32 33 34 35 36 37 38 39 40 41 42 43 44 45 46 47 48 49 50
000
ASUS41 KCLE 250012
RWRCLE
OHIO REGIONAL WEATHER ROUNDUP
NATIONAL WEATHER SERVICE WILMINGTON, OH
800 PM EDT MON APR 24 2017

NOTE: "FAIR" INDICATES FEW OR NO CLOUDS BELOW 12,000 FEET WITH NO
SIGNIFICANT WEATHER AND/OR OBSTRUCTIONS TO VISIBILITY.

OHZ001>008-015>018-024>027-034-035-043-044-250100-
   NORTHWEST OHIO

CITY           SKY/WX    TMP DP  RH WIND       PRES   REMARKS
DEFIANCE       FAIR      61  36  39 E12       29.87F
FINDLAY        FAIR      64  38  38 NE12      29.85F
TOLEDO EXPRESS FAIR      57  38  48 E16       29.90F
TOLEDO EXEC    FAIR      55  43  63 NE12      29.91F
LIMA           FAIR      66  41  40 NE15      29.84S
$$

OHZ009>014-019>023-028>033-038-089-250100-
   NORTHEAST OHIO

CITY           SKY/WX    TMP DP  RH WIND       PRES   REMARKS
CLE-HOPKINS    MOCLDY    69  42  37 SE13      29.93S
CLE-LAKEFRONT  FAIR      68  42  38 SE16G23   29.91R
CUY CO. ARPT   PTCLDY    68  34  28 SE17      29.94S
LORAIN-ELYRIA  FAIR      66  43  43 SE14G20   29.90S
ASHTABULA      FAIR      59  44  57 NE3       29.97F
AKRON-CANTON   MOCLDY    61  42  49 SE22G28   29.95R
WOOSTER        CLOUDY    61  44  53 SE16      29.93S
MANSFIELD      CLOUDY    62  46  55 E14       29.91R
YOUNGSTOWN     MOCLDY    61  42  49 SE12      29.97S
$$

OHZ042-051>053-060>062-070>072-077>081-250100-
  SOUTHWEST OHIO

CITY           SKY/WX    TMP DP  RH WIND       PRES   REMARKS
CINC-COVINGTON MOCLDY    66  52  60 E13       29.81R
CINC-LUNKEN    MOCLDY    66  53  63 E6        29.82S
HAMILTON       CLOUDY    67  53  61 E10       29.83R
DAYTON         MOCLDY    65  50  58 E13       29.84S
WRIGHT-PAT AFB CLOUDY    65  51  59 E13       29.85R
DAYTON GENERAL CLOUDY    64  51  62 E9        29.83R
WILMINGTON     CLOUDY    61  52  72 E7        29.84R
$$

OHZ036-037-039>041-045>050-054>059-063>069-073>076-082>088-250100-
  CENTRAL AND SOUTHEAST OHIO

CITY           SKY/WX    TMP DP  RH WIND       PRES   REMARKS
COLUMBUS       MOCLDY    62  49  62 SE15      29.87R
OSU AIRPORT    FAIR      61  49  64 E10       29.87R
BOLTON FIELD   NOT AVBL
RICKENBACK AFB CLOUDY    61  49  64 E14G21    29.86S
NEWARK         MOCLDY    59  46  62 E17G28    29.89R
MARION         CLOUDY    64  47  53 E18       29.88R
LANCASTER      CLOUDY    61  48  62 E9G20     29.88S
ZANESVILLE     FAIR      57  46  66 E13       29.91S
NEW PHILLY     CLOUDY    58  46  64 E14G22    29.95S
$$




USA.gov is the U.S. government's official web portal to all federal, state and local government web resources and services.